Date,TemperatureHighF,TemperatureAvgF,TemperatureLowF,DewpointHighF,DewpointAvgF,DewpointLowF,HumidityHigh,HumidityAvg,HumidityLow,PressureMaxIn,PressureMinIn,WindSpeedMaxMPH,WindSpeedAvgMPH,GustSpeedMaxMPH,PrecipitationSumIn
2013-1-1,31.6,25.5,14.5,29.8,22.0,10.6,93,86,78,29.85,29.62,9,1,28,0.00
2013-1-2,24.2,14.9,4.3,20.2,10.8,-1.1,89,84,78,30.03,29.81,7,1,7,0.00
2013-1-3,18.4,9.5,3.0,11.2,2.5,-1.8,82,73,56,30.03,29.87,6,1,0,0.00
2013-1-4,34.6,24.8,9.0,24.2,16.8,1.3,79,71,63,29.87,29.73,12,2,0,0.00
2013-1-5,33.2,27.1,15.8,23.6,17.0,8.2,74,66,53,30.19,29.75,9,1,0,0.00
2013-1-6,31.7,24.2,15.1,22.8,17.3,8.0,78,75,68,30.14,29.88,7,0,0,0.01
2013-1-7,27.9,22.1,13.1,22.9,13.6,5.5,82,70,56,30.32,29.89,12,1,0,0.00
2013-1-8,34.0,23.3,9.7,22.5,15.1,3.3,77,71,59,30.30,30.19,8,1,0,0.03
2013-1-9,34.2,25.7,16.5,25.3,18.8,10.9,79,75,66,30.34,29.92,5,0,0,0.00
2013-1-10,35.2,31.4,24.8,23.7,19.7,16.7,71,62,53,30.48,29.96,10,3,0,0.00
2013-1-11,31.1,26.8,20.5,25.6,20.2,14.3,86,76,69,30.48,30.17,3,0,0,0.00
2013-1-12,34.5,31.5,28.9,31.2,28.1,25.3,88,87,86,30.19,30.08,1,0,0,0.02
2013-1-13,40.6,35.5,32.0,37.7,32.3,28.8,89,88,87,30.12,29.94,7,0,0,0.00
2013-1-14,48.2,38.0,29.7,42.0,31.4,20.7,90,78,56,30.22,29.82,12,2,0,0.00
2013-1-15,31.3,27.2,23.3,22.5,19.3,16.7,79,72,61,30.27,30.18,5,0,0,0.00
2013-1-16,27.3,25.2,21.9,23.1,20.8,17.9,87,83,73,30.20,29.75,0,0,0,0.00
2013-1-17,31.2,23.8,16.9,25.0,17.0,2.7,87,75,51,30.07,29.75,7,1,0,0.00
2013-1-18,16.9,8.9,3.0,4.5,-3.4,-10.8,74,57,45,30.34,29.99,10,1,0,0.00
2013-1-19,34.0,24.2,11.7,21.9,15.1,2.5,78,68,55,30.27,29.81,10,1,0,0.01
2013-1-20,36.5,26.7,17.9,26.1,17.9,4.5,84,70,55,29.87,29.50,16,3,0,0.08
2013-1-21,21.0,15.2,8.6,11.7,4.5,-2.5,81,63,50,30.00,29.74,8,1,0,0.00
2013-1-22,16.5,11.3,0.7,11.7,3.9,-4.3,82,72,46,29.99,29.69,12,1,0,0.00
2013-1-23,2.4,-1.9,-7.1,-4.7,-13.1,-17.6,79,59,42,30.05,29.95,9,1,0,0.00
2013-1-24,8.8,-1.0,-9.8,-8.4,-15.1,-20.2,63,51,39,30.14,29.97,9,3,0,0.00
2013-1-25,12.9,5.6,-3.6,1.6,-8.3,-13.9,71,53,38,30.22,29.99,10,2,0,0.00
2013-1-26,12.2,7.4,2.0,1.7,-4.1,-9.2,75,60,41,30.14,29.93,9,2,0,0.00
2013-1-27,18.0,9.9,4.3,-3.0,-5.6,-9.8,66,50,34,30.40,30.13,9,3,0,0.00
2013-1-28,22.5,15.9,6.1,16.0,6.3,-7.0,82,66,51,30.39,29.97,13,0,0,0.00
2013-1-29,31.6,25.6,17.1,26.4,20.5,12.2,87,81,72,30.17,29.99,6,0,0,0.03
2013-1-30,48.7,36.3,29.8,46.2,33.5,26.4,91,90,87,30.10,29.42,8,1,0,0.04
2013-1-31,54.0,38.7,23.7,51.4,31.8,10.4,92,77,52,29.51,28.92,18,9,0,0.10
2013-2-1,27.9,21.3,14.7,11.7,7.6,2.3,64,55,45,30.01,29.51,14,4,0,0.00
2013-2-2,26.6,18.6,9.9,11.6,5.8,0.9,70,57,45,30.17,29.96,8,1,0,0.03
2013-2-3,26.5,21.4,14.5,16.0,12.7,8.8,78,69,55,29.99,29.66,8,0,0,0.00
2013-2-4,26.0,18.3,12.2,13.9,6.1,0.2,77,60,41,29.84,29.64,13,2,0,0.00
2013-2-5,22.6,15.5,6.8,11.3,4.7,-1.0,73,62,51,29.96,29.83,5,0,0,0.00
2013-2-6,32.9,23.8,14.6,20.6,13.5,-1.5,82,65,46,30.24,29.87,8,1,0,0.00
2013-2-7,23.3,15.5,7.7,5.3,-1.7,-6.3,56,46,36,30.47,30.23,8,1,0,0.00
2013-2-8,20.3,16.2,12.2,13.6,9.8,0.2,86,77,45,30.43,29.70,15,4,0,0.00
2013-2-9,16.2,13.2,9.0,13.0,9.6,5.1,87,85,84,30.14,29.66,18,8,0,0.00
2013-2-10,27.0,15.5,7.4,22.2,11.0,3.4,85,82,78,30.35,30.14,7,1,0,0.00
2013-2-11,28.6,22.3,11.8,26.0,18.8,6.9,90,86,80,30.28,29.58,0,0,0,0.08
2013-2-12,34.7,31.8,28.6,31.5,28.8,26.0,90,88,86,29.82,29.55,9,2,0,0.01
2013-2-13,35.2,29.4,24.3,29.8,25.1,20.8,88,84,76,29.82,29.68,6,0,0,0.00
2013-2-14,34.5,28.6,24.4,26.3,22.2,19.2,85,77,62,29.94,29.67,9,0,0,0.00
2013-2-15,42.4,30.4,19.9,31.4,23.8,15.6,84,77,64,29.94,29.86,10,1,0,0.00
2013-2-16,35.2,30.1,23.4,27.1,22.2,8.3,87,73,52,29.93,29.69,9,3,0,0.01
2013-2-17,23.4,16.0,10.8,13.5,8.4,2.1,85,73,49,29.70,29.36,15,6,0,0.01
2013-2-18,23.0,15.7,8.8,15.2,4.0,0.4,82,60,43,30.07,29.60,15,5,0,0.00
2013-2-19,36.5,27.3,13.1,32.1,18.0,1.6,89,68,53,30.10,29.55,7,1,0,0.00
2013-2-20,33.4,27.3,20.8,30.6,21.7,14.6,90,79,67,29.71,29.50,10,4,0,0.00
2013-2-21,25.7,20.5,17.6,15.1,12.2,9.2,78,70,59,30.17,29.69,13,5,0,0.00
2013-2-22,35.3,26.7,17.1,29.1,20.9,12.5,86,79,64,30.35,30.17,9,2,0,0.00
2013-2-23,33.8,30.3,27.1,30.6,27.4,23.7,91,89,86,30.28,29.91,7,1,0,0.00
2013-2-24,30.4,30.1,29.7,28.1,27.8,27.4,91,91,91,29.91,29.73,0,0,0,0.01
2013-2-25,32.4,31.2,29.8,30.0,28.9,27.5,91,91,91,30.20,29.86,3,0,0,0.01
2013-2-26,35.1,32.2,30.2,33.0,30.0,28.2,92,91,91,30.31,30.14,5,0,0,0.00
2013-2-27,32.4,30.8,29.8,30.3,28.7,27.8,92,92,91,30.14,29.59,6,2,0,0.00
2013-2-28,38.3,33.6,29.8,36.2,31.5,27.8,92,92,91,29.60,29.51,5,0,0,0.00
2013-3-1,34.9,32.2,30.2,32.8,30.0,27.9,92,92,91,29.67,29.50,8,2,0,0.00
2013-3-2,36.1,31.2,28.4,31.9,27.8,25.1,91,87,81,29.66,29.61,8,3,0,0.00
2013-3-3,35.1,30.0,26.6,30.7,26.2,23.5,89,86,78,29.63,29.55,10,3,0,0.03
2013-3-4,33.3,28.3,24.9,25.4,22.1,18.2,83,77,66,29.75,29.56,9,4,0,0.00
2013-3-5,39.7,31.0,23.9,29.3,24.1,17.4,84,75,64,30.04,29.74,8,2,0,0.00
2013-3-6,33.3,31.5,29.3,29.0,27.4,25.1,89,85,80,30.15,30.03,12,5,0,0.00
2013-3-7,32.0,28.8,27.1,25.4,24.4,22.2,88,83,76,30.11,30.00,13,6,0,0.00
2013-3-8,38.3,31.2,27.0,30.1,25.9,22.8,89,81,69,30.17,29.95,13,4,0,0.00
2013-3-9,46.0,34.0,25.3,26.9,24.1,20.6,83,68,43,30.31,30.14,8,1,0,0.02
2013-3-10,37.4,31.2,22.5,30.5,26.0,18.4,86,81,74,30.38,30.25,9,1,0,0.00
2013-3-11,44.6,36.6,30.7,34.0,30.5,26.5,85,79,66,30.27,30.10,10,2,0,0.00
2013-3-12,45.8,41.5,36.1,42.8,38.1,31.5,90,87,82,30.10,29.70,8,2,0,0.00
2013-3-13,44.8,36.5,28.4,41.2,30.4,23.4,89,79,62,29.76,29.70,8,1,0,0.00
2013-3-14,31.0,26.9,17.2,23.8,17.7,6.4,82,68,59,29.79,29.66,9,3,0,0.00
2013-3-15,34.8,23.8,13.6,24.1,12.9,3.0,81,63,48,29.80,29.57,10,2,0,0.00
2013-3-16,33.1,27.0,21.4,21.4,15.5,13.0,78,62,50,29.84,29.63,6,1,0,0.03
2013-3-17,29.5,23.3,17.2,13.5,9.1,0.4,72,55,40,30.26,29.83,14,2,0,0.02
2013-3-18,34.2,24.0,12.7,19.3,9.0,0.3,65,53,43,30.40,30.18,5,0,0,0.00
2013-3-19,31.5,28.8,24.8,27.2,23.7,19.3,85,81,67,30.18,29.66,5,0,0,0.00
2013-3-20,29.8,28.5,25.2,25.4,24.0,21.0,85,83,81,29.75,29.64,9,3,0,0.06
2013-3-21,31.3,26.5,18.1,25.9,21.8,13.5,85,82,78,29.76,29.57,7,1,0,0.00
2013-3-22,32.4,28.1,24.4,26.0,23.2,20.3,85,82,76,29.68,29.57,10,3,0,0.00
2013-3-23,34.0,29.1,23.7,26.4,23.2,19.3,84,79,71,29.75,29.62,13,5,0,0.00
2013-3-24,36.5,32.2,27.7,26.8,24.5,22.3,81,73,64,29.81,29.73,12,4,0,0.00
2013-3-25,37.4,31.9,26.2,29.2,25.2,20.6,81,76,71,29.76,29.55,12,2,0,0.01
2013-3-26,40.1,34.8,30.6,28.5,25.8,23.3,80,70,54,29.76,29.55,9,1,0,0.01
2013-3-27,43.7,35.9,27.3,28.8,25.7,21.7,80,67,51,29.86,29.73,21,4,0,0.00
2013-3-28,44.1,37.5,32.7,34.2,30.0,26.8,84,75,57,30.00,29.86,9,2,0,0.01
2013-3-29,48.2,40.3,33.3,33.7,30.3,27.1,78,68,53,30.03,29.99,7,2,0,0.00
2013-3-30,47.1,38.6,31.1,28.5,24.5,18.4,78,59,37,30.08,30.01,9,3,0,0.00
2013-3-31,52.2,39.3,26.2,32.6,24.8,16.4,76,57,40,30.10,29.78,17,4,0,0.00
2013-4-1,51.3,39.6,28.9,42.5,32.2,15.8,87,76,54,29.77,29.51,13,3,0,0.00
2013-4-2,33.8,29.2,24.8,17.5,14.7,12.8,64,55,46,29.87,29.74,14,4,0,0.00
2013-4-3,37.9,30.5,24.1,16.0,12.8,10.3,62,48,34,30.08,29.85,13,4,0,0.00
2013-4-4,46.9,35.5,25.3,21.3,16.9,12.9,61,47,35,30.25,29.96,10,2,0,0.00
2013-4-5,51.4,40.5,32.4,27.9,23.4,18.4,66,51,35,29.96,29.67,14,3,0,0.00
2013-4-6,37.6,30.6,24.3,18.3,10.2,6.2,58,43,30,30.30,29.86,12,3,0,0.00
2013-4-7,51.8,37.4,24.4,30.4,20.6,9.5,66,51,39,30.30,29.94,15,4,0,0.00
2013-4-8,55.6,45.6,36.2,35.6,32.5,29.4,80,61,40,30.09,29.93,15,1,0,0.00
2013-4-9,58.1,48.4,40.2,47.6,38.7,32.1,83,70,54,30.07,29.88,9,1,0,0.00
2013-4-10,54.1,47.3,42.6,47.8,42.1,36.6,88,82,72,29.99,29.88,3,0,0,0.00
2013-4-11,44.1,40.2,35.4,40.4,34.2,27.4,89,79,60,30.13,29.85,6,1,0,0.00
2013-4-12,36.1,32.1,30.6,29.6,27.9,26.3,88,84,76,30.19,29.82,6,1,0,0.00
2013-4-13,45.5,38.0,31.1,39.1,33.5,28.0,88,84,73,29.93,29.78,6,0,0,0.00
2013-4-14,46.6,40.1,33.0,35.4,32.0,26.6,86,73,56,30.19,29.89,8,1,0,0.00
2013-4-15,55.8,41.3,29.4,39.4,32.0,24.5,83,70,54,30.36,30.19,17,0,0,0.00
2013-4-16,62.6,47.9,34.9,47.2,39.0,29.0,81,72,54,30.36,30.03,13,3,0,0.00
2013-4-17,64.9,50.5,39.9,47.9,34.5,27.0,83,56,34,30.32,30.04,7,1,0,0.00
2013-4-18,58.9,46.4,32.4,38.7,31.4,23.7,77,57,46,30.42,30.14,10,2,0,0.00
2013-4-19,68.2,58.5,47.3,56.9,50.3,35.0,86,75,62,30.14,29.63,18,5,0,0.00
2013-4-20,60.3,46.7,35.8,56.7,37.4,22.0,88,71,42,30.19,29.63,7,2,0,0.00
2013-4-21,63.1,38.0,30.3,30.4,21.1,18.8,68,52,29,30.64,30.20,7,1,0,0.00
2013-4-22,59.1,39.0,29.5,31.8,24.9,18.8,71,58,35,30.75,30.58,9,1,0,0.00
2013-4-23,38.1,35.1,30.6,33.6,29.6,23.8,86,80,72,30.58,30.15,5,0,0,0.00
2013-4-24,81.5,52.7,37.4,50.4,41.6,33.6,87,69,33,30.13,29.78,16,2,0,0.00
2013-4-25,73.8,50.8,40.5,45.5,34.1,25.5,78,54,26,30.27,29.78,10,2,0,0.00
2013-4-26,57.2,45.9,32.0,36.9,30.7,22.7,79,56,44,30.41,30.27,3,0,0,0.00
2013-4-27,65.3,48.8,33.4,39.7,33.8,26.0,78,58,38,30.41,30.27,5,0,0,0.00
2013-4-28,75.2,51.4,35.6,46.0,36.1,28.0,76,57,32,30.32,30.20,6,0,0,0.00
2013-4-29,68.3,53.2,40.5,45.7,37.5,30.0,71,56,41,30.25,30.17,6,1,0,0.00
2013-4-30,81.5,56.3,43.7,44.7,34.5,27.3,62,45,26,30.37,30.25,5,0,0,0.01
2013-5-1,83.8,54.3,37.0,47.2,33.4,25.4,65,47,27,30.48,30.36,6,0,0,0.00
2013-5-2,73.8,54.3,42.6,45.1,36.9,30.3,72,53,33,30.50,30.36,9,0,0,0.00
2013-5-3,79.6,50.8,37.9,50.3,37.4,29.6,77,61,36,30.52,30.38,8,1,0,0.00
2013-5-4,78.8,51.9,40.1,46.6,38.1,29.9,81,61,30,30.38,30.28,6,1,0,0.00
2013-5-5,81.0,49.7,32.7,48.0,35.0,25.7,77,59,31,30.32,30.23,5,0,0,0.00
2013-5-6,87.2,53.2,34.7,48.3,37.6,27.9,78,58,25,30.27,30.14,7,0,0,0.00
2013-5-7,92.7,61.2,42.4,54.5,45.5,36.1,80,59,27,30.18,30.10,9,0,0,0.00
2013-5-8,68.4,60.5,50.9,60.0,53.1,44.3,85,77,66,30.25,30.07,9,1,0,0.09
2013-5-9,74.7,58.2,54.3,62.6,53.8,50.8,89,86,66,30.07,29.91,2,0,0,0.09
2013-5-10,75.8,62.7,54.4,58.9,54.5,50.9,88,76,54,29.99,29.92,3,0,0,0.00
2013-5-11,63.3,59.4,55.9,59.1,54.9,50.8,89,85,78,29.92,29.71,9,1,0,0.18
2013-5-12,65.1,54.6,42.2,53.6,47.2,30.3,90,77,48,29.79,29.60,7,1,0,0.01
2013-5-13,55.4,44.2,37.1,34.1,31.5,28.9,76,62,44,30.03,29.79,9,2,0,0.00
2013-5-14,67.7,46.1,35.7,36.7,31.8,28.8,76,59,31,30.06,29.99,10,1,0,0.00
2013-5-15,63.0,48.1,35.1,46.0,37.5,28.0,86,68,43,30.04,29.67,7,1,0,0.07
2013-5-16,79.5,58.4,43.3,50.4,43.6,38.5,88,62,31,29.85,29.63,14,2,0,0.00
2013-5-17,75.6,54.2,44.6,43.6,38.3,35.1,70,56,32,30.22,29.85,12,2,0,0.00
2013-5-18,73.6,56.3,41.5,49.7,41.1,33.9,77,58,37,30.31,30.21,8,1,0,0.00
2013-5-19,65.8,55.2,47.8,52.7,46.5,41.6,86,73,59,30.35,30.21,6,0,0,0.06
2013-5-20,75.5,61.7,52.3,62.9,55.6,48.3,89,81,64,30.20,29.97,6,0,0,0.02
2013-5-21,69.4,58.1,47.7,63.4,53.4,44.0,88,85,72,30.08,29.92,7,1,0,0.14
2013-5-22,58.5,52.5,48.2,55.2,49.3,44.8,90,89,88,30.03,29.89,6,0,0,0.40
2013-5-23,67.2,58.0,50.2,64.2,55.2,47.1,91,90,89,29.93,29.81,6,1,0,0.13
2013-5-24,66.2,58.0,44.2,63.5,54.3,40.9,91,87,76,29.86,29.67,8,2,0,0.22
2013-5-25,45.4,42.1,34.3,42.6,39.3,31.2,90,90,88,29.85,29.73,8,2,0,0.20
2013-5-26,52.6,42.8,34.7,43.1,36.9,31.8,91,80,63,30.06,29.68,12,3,0,0.08
2013-5-27,79.5,51.9,35.9,49.1,39.0,32.1,87,64,32,30.18,30.06,8,2,0,0.00
2013-5-28,74.8,55.5,39.7,50.8,43.1,34.1,83,64,43,30.25,30.17,5,0,0,0.00
2013-5-29,59.9,55.5,50.4,56.6,51.3,42.0,90,86,73,30.17,30.01,1,0,0,0.12
2013-5-30,88.6,68.1,55.4,68.2,60.8,52.5,90,79,50,30.10,30.02,6,0,0,0.00
2013-5-31,99.1,74.2,60.8,70.8,63.0,56.9,88,70,39,30.12,29.99,6,0,0,0.00
2013-6-1,97.1,75.7,63.8,71.6,64.5,58.8,85,69,44,30.01,29.90,7,1,0,0.00
2013-6-2,85.5,74.0,65.1,69.9,64.2,60.8,87,73,53,29.91,29.74,10,2,0,0.26
2013-6-3,86.9,66.5,54.9,65.6,58.9,45.6,90,78,41,29.87,29.79,8,1,0,0.03
2013-6-4,81.7,58.1,46.4,52.4,44.1,40.4,81,61,35,30.11,29.85,12,1,0,0.00
2013-6-5,82.6,60.1,47.3,53.5,45.4,40.8,79,60,35,30.20,30.10,5,0,0,0.00
2013-6-6,71.1,60.3,50.5,55.0,48.9,43.3,77,67,54,30.21,30.12,3,0,0,0.01
2013-6-7,56.3,51.1,47.8,49.6,47.4,44.8,89,87,78,30.14,29.88,5,0,0,0.46
2013-6-8,68.4,58.1,48.7,61.3,53.6,45.6,90,85,75,30.03,29.69,9,1,0,0.34
2013-6-9,88.2,64.0,52.5,62.2,54.4,48.8,88,73,40,30.20,30.03,6,1,0,0.00
2013-6-10,69.8,60.1,52.9,59.1,53.4,47.9,88,79,68,30.23,30.04,8,0,0,0.11
2013-6-11,57.4,54.2,51.7,54.5,51.2,48.6,90,89,88,30.04,29.59,6,1,0,0.49
2013-6-12,75.3,58.3,52.3,58.3,51.9,49.3,91,80,53,29.84,29.57,12,2,0,0.00
2013-6-13,63.3,56.3,49.8,56.0,51.2,45.8,88,83,75,29.82,29.73,3,0,0,0.11
2013-6-14,84.2,58.6,49.8,65.2,52.5,46.6,90,81,50,29.81,29.68,7,0,0,0.13
2013-6-15,88.5,62.3,52.2,56.5,48.4,44.1,83,62,33,29.94,29.81,6,1,0,0.00
2013-6-16,72.1,61.7,51.4,58.0,52.6,45.1,81,73,57,29.94,29.73,5,0,0,0.00
2013-6-17,76.6,64.2,55.6,64.9,56.9,50.5,87,78,57,29.92,29.79,9,0,0,0.13
2013-6-18,62.2,57.8,54.7,58.0,53.5,51.2,88,86,81,29.99,29.90,5,0,0,0.02
2013-6-19,85.6,60.6,50.5,56.6,50.0,44.5,87,70,35,30.17,29.93,7,1,0,0.00
2013-6-20,91.8,62.4,47.1,59.8,49.8,42.2,83,65,32,30.27,30.17,2,0,0,0.00
2013-6-21,96.4,67.1,54.1,65.1,53.5,43.8,82,63,34,30.27,30.21,7,0,0,0.00
2013-6-22,82.9,68.9,55.4,68.3,58.6,49.0,81,71,53,30.25,30.14,7,0,0,0.00
2013-6-23,83.7,72.0,62.2,72.1,64.3,57.2,85,77,64,30.17,30.01,7,0,0,0.02
2013-6-24,96.0,74.8,66.7,72.5,66.1,62.4,89,76,47,30.04,29.93,26,3,0,0.35
2013-6-25,86.3,72.7,63.9,71.9,66.3,60.9,90,81,60,29.99,29.78,26,1,0,0.21
2013-6-26,74.0,67.1,63.5,69.1,63.9,60.5,91,90,83,29.89,29.77,2,0,0,0.47
2013-6-27,67.8,63.3,59.9,64.3,60.4,57.3,91,90,88,29.89,29.80,3,0,0,0.01
2013-6-28,77.2,61.4,54.0,70.9,58.6,51.4,92,91,81,29.79,29.52,6,1,0,0.22
2013-6-29,88.2,70.7,64.0,72.5,65.7,61.4,92,85,60,29.73,29.55,9,2,0,0.00
2013-6-30,81.1,71.4,63.1,71.9,65.8,59.7,89,83,71,29.96,29.73,6,0,0,0.14
2013-7-1,73.5,69.2,65.1,69.7,66.1,61.8,92,90,88,30.10,29.96,3,0,0,0.32
2013-7-2,75.2,67.5,61.2,72.4,64.8,58.5,92,91,89,30.25,30.08,6,0,0,0.08
2013-7-3,70.7,67.3,60.8,67.9,64.6,58.2,91,91,91,30.23,30.16,6,0,0,0.03
2013-7-4,101.4,79.0,70.7,79.0,71.2,67.4,91,78,48,30.22,30.12,5,0,0,0.00
2013-7-5,102.0,81.1,73.6,78.6,71.1,67.4,81,72,48,30.19,30.07,5,0,0,0.00
2013-7-6,98.6,77.9,69.8,74.1,68.1,62.8,83,73,44,30.11,30.03,6,0,0,0.00
2013-7-7,86.4,75.2,66.1,74.1,66.7,60.5,85,76,60,30.06,29.95,1,0,0,0.02
2013-7-8,80.8,72.1,63.9,72.3,67.2,60.2,89,85,73,30.10,29.95,3,0,0,1.00
2013-7-9,96.8,37.1,-18.4,96.5,35.0,-49.1,99,94,17,30.14,30.07,2,0,0,0.00
2013-7-10,96.8,34.1,-18.4,96.5,26.4,-50.0,99,79,16,30.10,29.82,5,0,0,0.06
2013-7-11,110.7,35.3,-18.4,99.9,30.2,-54.4,99,87,13,29.99,29.78,8,0,0,0.00
2013-7-12,91.0,69.2,62.6,70.2,61.3,57.7,85,77,49,30.25,29.99,6,1,0,0.00
2013-7-13,88.1,69.7,59.9,71.5,62.2,54.9,86,77,58,30.34,30.23,1,0,0,0.01
2013-7-14,85.6,75.0,65.3,73.0,66.9,60.7,86,76,64,30.33,30.25,2,0,0,0.00
2013-7-15,94.1,77.1,68.3,72.5,67.2,62.9,83,73,49,30.25,30.15,3,0,0,0.00
2013-7-16,103.0,78.7,68.4,74.5,66.3,61.2,83,67,40,30.21,30.17,8,1,0,0.00
2013-7-17,104.7,80.1,68.0,78.4,68.4,61.9,81,69,42,30.22,30.00,6,0,0,0.00
2013-7-18,88.3,77.1,70.0,75.5,69.0,64.9,86,77,64,30.06,29.99,3,0,0,0.00
2013-7-19,106.2,58.2,-22.9,99.9,50.1,-59.3,99,79,12,29.99,29.75,7,0,0,0.00
2013-7-20,87.8,76.0,68.5,72.7,66.8,61.8,83,74,57,29.84,29.71,7,0,0,0.00
2013-7-21,77.7,71.0,63.1,67.2,63.2,58.0,84,76,67,30.03,29.84,2,0,0,0.00
2013-7-22,83.6,69.1,64.4,70.4,62.7,59.1,85,80,63,30.06,29.93,5,0,0,0.00
2013-7-23,129.2,42.0,-22.5,99.9,34.2,-58.4,99,81,11,29.93,29.59,1,0,0,0.00
2013-7-24,106.2,30.4,-18.4,99.9,23.8,-49.1,99,83,16,29.75,29.61,0,0,0,0.00
2013-7-29,84.0,77.6,73.4,69.6,68.2,66.1,81,73,56,30.03,29.95,8,5,0,0.02
2013-7-30,79.0,75.5,61.0,69.6,60.1,50.4,93,61,38,30.10,29.95,16,7,0,0.00
2013-7-31,81.0,69.0,55.0,61.9,57.1,53.0,100,70,38,30.15,30.04,6,2,0,0.00
2013-8-1,80.1,67.0,55.9,65.9,60.3,54.8,100,81,50,30.05,29.88,12,4,0,0.03
2013-8-2,82.0,70.6,62.6,64.8,60.2,51.5,100,74,36,29.88,29.78,12,5,0,0.45
2013-8-3,79.1,66.6,55.1,62.5,57.9,53.7,100,76,46,29.85,29.76,5,1,12,0.00
2013-8-4,75.4,67.1,54.9,61.1,56.1,50.8,95,69,50,29.90,29.79,11,2,17,0.00
2013-8-5,72.8,61.4,51.9,53.0,46.7,34.9,93,63,26,30.05,29.87,16,3,19,0.00
2013-8-6,77.0,63.2,48.5,60.6,52.2,45.2,95,70,42,30.16,30.04,7,1,9,0.00
2013-8-7,78.2,65.5,51.3,64.5,55.9,49.7,97,74,45,30.19,30.09,11,2,12,0.00
2013-8-8,82.6,71.6,62.5,71.8,65.4,55.6,92,81,64,30.11,29.98,10,2,16,0.00
2013-8-9,73.2,71.1,68.0,72.3,69.8,67.5,99,96,90,30.01,29.71,13,2,14,0.89
2013-8-10,79.4,69.5,57.4,67.7,59.4,48.0,99,74,36,30.02,29.77,15,2,20,0.01
2013-8-11,77.6,64.2,51.5,61.3,54.2,50.1,96,73,41,30.08,29.97,10,2,11,0.00
2013-8-12,79.6,67.0,55.0,65.2,57.8,53.3,96,75,43,30.02,29.91,11,2,12,0.00
2013-8-13,71.6,64.3,59.4,67.9,62.3,57.7,97,93,86,29.92,29.68,5,1,9,0.90
2013-8-14,71.7,63.3,54.0,63.1,53.6,48.4,98,72,50,29.95,29.66,17,3,20,0.00
2013-8-15,73.7,61.3,49.0,56.3,51.1,47.3,94,72,43,30.10,29.95,15,2,16,0.00
2013-8-16,75.8,68.9,55.9,60.2,55.8,52.1,90,65,46,30.19,30.13,10,2,10,0.00
2013-8-17,78.5,65.3,51.4,61.6,55.9,50.3,98,75,43,30.28,30.19,8,1,8,0.00
2013-8-18,78.9,66.1,55.7,65.6,59.6,54.4,98,81,49,30.27,30.07,7,1,7,0.00
2013-8-19,78.7,68.4,55.5,66.1,60.3,54.1,98,77,50,30.08,29.94,11,1,11,0.00
2013-8-20,83.5,71.1,61.1,66.0,61.3,57.6,91,73,42,30.09,29.98,8,2,8,0.00
2013-8-21,86.2,72.8,60.2,69.4,63.0,58.6,95,74,44,30.14,30.01,11,2,11,0.00
2013-8-22,86.9,74.0,59.7,71.3,65.2,58.7,97,76,42,30.02,29.81,10,2,11,0.10
2013-8-23,68.2,66.1,64.0,66.8,64.7,62.5,96,95,95,29.84,29.81,4,1,4,0.00
2013-8-24,75.3,66.1,47.9,57.2,50.8,43.7,95,60,33,30.34,30.27,10,2,11,0.00
2013-8-25,80.2,65.4,47.6,61.1,53.7,46.2,98,70,34,30.38,30.16,11,2,11,0.00
2013-8-26,79.1,68.3,59.9,68.2,63.3,56.2,96,85,61,30.16,29.86,11,2,12,0.08
2013-8-27,82.7,72.3,65.4,70.0,66.1,63.4,97,82,55,29.90,29.83,8,1,8,0.00
2013-8-28,85.2,72.7,61.3,71.5,65.7,60.4,99,81,55,29.99,29.84,7,1,9,0.50
2013-8-29,64.1,62.0,58.8,63.6,60.9,57.8,99,96,91,30.08,29.95,10,1,10,0.25
2013-8-30,82.3,68.5,56.1,70.7,63.4,55.5,100,85,57,30.03,29.80,9,1,9,0.00
2013-8-31,78.5,71.1,66.3,74.3,68.8,65.3,98,92,85,29.82,29.75,8,2,11,0.02
2013-9-1,83.4,75.0,66.5,73.7,70.0,65.9,99,85,63,29.86,29.78,14,1,14,2.25
2013-9-2,73.0,69.5,65.3,72.7,69.0,64.8,100,99,96,29.80,29.68,6,1,10,2.71
2013-9-3,74.6,65.2,57.5,69.3,63.1,56.5,100,93,76,29.78,29.67,8,1,8,0.00
2013-9-4,77.7,64.7,54.2,62.6,57.3,52.9,99,80,44,29.88,29.77,13,2,15,0.00
2013-9-5,66.8,58.4,48.6,56.9,48.8,38.5,97,73,39,30.15,29.83,12,2,16,0.00
2013-9-6,66.8,53.8,40.6,51.3,43.3,38.3,95,71,37,30.23,30.06,10,1,11,0.00
2013-9-7,78.5,60.2,44.8,61.0,51.3,43.5,97,76,35,30.07,29.82,10,1,10,0.01
2013-9-8,69.4,58.1,45.3,60.6,49.1,40.0,96,74,46,30.07,29.72,24,2,24,0.00
2013-9-9,69.3,54.2,38.3,53.8,44.9,37.0,98,73,41,30.22,30.07,11,2,12,0.00
2013-9-10,72.5,61.2,48.3,69.1,59.5,46.4,98,94,87,30.12,29.99,8,1,10,0.05
2013-9-11,92.2,77.5,65.3,77.5,71.0,65.0,100,82,53,30.03,29.85,18,2,19,0.05
2013-9-12,78.7,68.5,64.3,73.9,67.0,63.9,99,95,78,29.90,29.62,14,2,14,2.12
2013-9-13,71.3,62.5,54.3,67.9,60.6,51.2,100,94,79,29.75,29.57,12,2,13,0.06
2013-9-14,63.3,55.5,48.6,54.9,51.0,47.8,97,86,67,30.03,29.74,14,2,16,0.00
2013-9-15,68.7,55.2,44.1,55.4,49.5,43.3,99,83,49,30.14,30.01,10,1,10,0.00
2013-9-16,63.7,54.0,41.3,55.2,48.0,34.9,97,81,63,30.26,29.98,16,2,16,0.00
2013-9-17,60.3,47.1,35.8,48.9,39.3,33.8,95,76,47,30.43,30.26,12,2,12,0.00
2013-9-18,71.5,53.3,39.3,54.7,44.5,38.5,99,76,34,30.32,30.12,10,1,10,0.00
2013-9-20,76.8,65.4,46.7,60.9,56.5,46.2,99,75,47,30.09,29.98,8,1,8,0.00
2013-9-21,73.6,60.8,46.1,62.5,56.1,45.3,99,86,57,29.99,29.68,16,3,21,0.00
2013-9-22,68.6,60.2,46.5,64.4,54.3,41.9,98,82,53,29.82,29.56,14,3,14,0.83
2013-9-23,57.2,48.0,41.5,44.7,40.1,37.7,88,75,57,29.99,29.81,21,3,21,0.00
2013-9-24,61.3,50.9,40.9,44.4,41.4,38.2,91,71,48,29.97,29.82,17,3,19,0.00
2013-9-25,66.3,54.4,43.9,52.2,47.0,41.7,93,77,55,29.98,29.87,12,2,12,0.00
2013-9-26,64.5,54.0,45.1,52.5,47.6,42.9,95,80,55,30.13,29.98,9,1,9,0.00
2013-9-27,64.3,55.4,48.7,54.9,50.6,47.6,97,85,65,30.26,30.13,9,1,10,0.00
2013-9-28,71.2,56.4,45.7,57.5,50.8,45.1,99,83,53,30.33,30.25,9,1,13,0.00
2013-9-29,68.7,53.8,42.4,56.1,47.6,41.6,99,82,50,30.25,30.10,8,1,11,0.00
2013-9-30,68.0,51.9,38.1,55.1,47.0,37.3,99,85,54,30.11,29.96,9,1,9,0.00
2013-10-1,73.4,56.3,44.5,59.3,51.2,43.7,99,85,46,29.97,29.83,10,1,11,0.00
2013-10-2,77.5,62.8,50.8,63.2,56.0,49.8,98,80,53,29.92,29.80,15,2,17,0.00
2013-10-3,56.6,52.2,49.6,54.9,50.3,47.8,95,93,83,30.06,29.92,6,1,7,0.00
2013-10-4,62.9,57.9,47.7,57.4,54.3,46.9,98,88,73,30.08,30.02,4,0,4,0.00
2013-10-5,62.2,57.9,55.1,56.7,53.8,49.2,97,87,70,30.11,30.04,6,1,6,0.00
2013-10-6,56.6,50.7,47.1,55.3,49.8,45.9,99,97,88,30.24,30.10,8,1,8,0.33
2013-10-7,69.8,58.2,51.4,69.2,57.5,50.9,100,97,89,30.14,29.74,32,2,32,0.78
2013-10-8,60.5,51.1,40.4,51.3,42.6,35.7,98,75,42,30.38,29.87,14,2,17,0.00
2013-10-9,60.0,45.6,33.2,47.1,40.0,32.4,99,83,50,30.49,30.37,7,1,8,0.00
2013-10-10,57.8,47.0,36.3,50.2,43.2,35.5,99,88,58,30.37,30.19,5,1,5,0.00
2013-10-11,66.1,52.5,41.7,55.9,47.1,40.9,99,84,52,30.19,30.11,8,1,8,0.00
2013-10-12,52.5,48.6,43.0,51.3,47.7,42.2,99,96,93,30.41,30.17,10,2,10,0.00
2013-10-13,58.4,46.8,37.6,49.2,43.7,37.1,99,90,65,30.45,30.38,8,1,9,0.00
2013-10-14,63.6,49.6,35.3,51.4,43.9,34.6,99,83,58,30.39,30.22,9,1,9,0.00
2013-10-15,61.3,54.8,49.2,55.2,51.2,46.9,97,88,75,30.26,30.16,8,1,8,0.00
2013-10-16,60.4,51.5,45.4,50.8,48.4,44.6,99,90,59,30.17,29.89,8,1,8,0.00
2013-10-17,71.9,55.7,44.4,59.0,47.7,42.3,99,78,41,29.90,29.69,14,2,14,0.00
2013-10-18,64.5,54.1,40.6,57.1,47.6,37.8,99,80,50,29.88,29.57,16,2,19,0.17
2013-10-19,64.1,50.8,37.2,48.3,41.7,35.9,97,73,44,29.94,29.72,13,2,15,0.00
2013-10-20,58.9,48.6,38.9,46.8,38.6,32.5,98,71,43,29.99,29.66,22,3,22,0.00
2013-10-21,62.5,48.5,34.0,43.9,38.5,32.7,97,71,43,30.09,29.94,16,2,16,0.00
2013-10-22,57.3,47.7,38.1,49.9,42.7,33.3,98,83,71,29.95,29.69,14,2,15,0.00
2013-10-23,50.6,41.4,31.9,37.0,32.7,28.2,94,73,42,29.77,29.57,10,2,10,0.00
2013-10-24,48.7,40.7,31.9,36.7,30.2,26.7,91,68,48,29.87,29.64,21,3,21,0.00
2013-10-25,45.2,36.1,28.8,34.0,27.9,24.7,96,74,46,30.12,29.87,16,2,18,0.00
2013-10-26,48.7,38.8,27.5,34.7,28.4,25.2,97,69,42,30.13,29.84,23,3,23,0.00
2013-10-27,52.3,42.7,31.4,35.6,31.0,25.2,87,64,42,30.03,29.76,19,3,19,0.00
2013-10-28,53.5,39.2,29.1,37.1,29.2,20.9,93,69,46,30.35,30.03,25,3,25,0.00
2013-10-29,43.5,31.8,22.6,25.3,19.9,14.9,90,64,33,30.45,30.34,10,2,14,0.00
2013-10-30,46.9,35.0,26.8,36.5,28.7,18.1,96,78,64,30.36,30.19,11,1,13,0.00
2013-10-31,56.6,41.9,30.1,56.0,40.9,29.3,99,96,89,30.24,29.74,14,2,15,0.08
2013-11-1,65.1,59.0,46.9,60.6,55.1,44.9,98,87,74,29.74,29.36,27,6,29,0.23
2013-11-2,60.7,49.6,40.0,46.2,42.7,38.8,98,79,48,29.73,29.57,12,2,14,0.01
2013-11-3,44.7,35.2,26.3,42.2,22.4,12.7,91,61,36,30.42,29.73,18,3,18,0.00
2013-11-4,37.2,28.6,22.0,18.7,15.9,12.5,80,60,37,30.71,30.42,11,2,12,0.00
2013-11-5,45.2,32.8,22.2,30.8,24.7,17.7,90,73,49,30.71,30.49,12,2,13,0.00
2013-11-6,57.1,45.6,33.2,44.8,38.5,29.9,95,77,58,30.49,29.98,16,3,19,0.00
2013-11-7,58.2,50.0,37.4,55.5,45.2,33.3,94,84,76,29.99,29.65,22,4,22,0.04
2013-11-8,42.7,34.1,26.1,34.1,26.2,22.4,90,73,56,30.06,29.79,15,3,20,0.01
2013-11-9,40.1,34.7,28.0,29.0,23.2,19.6,80,63,47,30.18,30.00,12,2,13,0.00
2013-11-10,44.4,38.2,31.1,39.4,33.5,26.5,97,83,71,30.01,29.72,14,2,16,0.02
2013-11-11,46.9,40.1,35.1,30.6,26.7,22.1,74,59,39,30.06,29.83,18,3,24,0.00
2013-11-12,41.5,30.1,23.8,33.3,19.1,13.0,85,63,53,30.16,29.85,17,3,19,0.00
2013-11-13,30.6,24.3,19.8,15.6,12.3,9.5,73,60,44,30.28,30.11,17,3,21,0.00
2013-11-14,45.9,34.3,23.2,27.9,21.9,15.3,79,61,45,30.11,30.02,18,3,18,0.00
2013-11-15,54.0,38.7,27.2,23.9,20.1,14.9,76,50,22,30.17,30.09,12,2,12,0.00
2013-11-16,55.5,42.0,33.5,31.4,26.1,21.5,77,55,28,30.30,30.16,8,1,8,0.00
2013-11-17,47.4,36.6,29.9,47.0,34.6,26.0,99,93,76,30.31,29.84,6,1,6,0.08
2013-11-18,59.1,50.8,41.9,54.9,44.1,30.8,99,80,45,29.84,29.49,20,3,22,0.33
2013-11-19,42.4,33.9,27.3,31.5,19.9,13.4,69,56,46,30.29,29.62,22,5,22,0.00
2013-11-20,35.7,28.3,24.2,16.8,14.2,9.8,71,56,35,30.62,30.29,16,3,16,0.00
2013-11-21,42.7,31.4,18.6,26.5,16.6,8.4,82,58,25,30.63,30.35,11,2,13,0.00
2013-11-22,39.8,35.9,33.9,39.5,33.8,26.5,99,92,68,30.35,29.79,4,1,4,0.16
2013-11-23,40.6,34.0,24.6,40.3,23.7,11.6,99,67,44,29.91,29.74,27,4,27,0.00
2013-11-24,24.6,18.6,14.9,17.9,4.4,-4.8,90,55,36,30.17,29.75,32,6,32,0.00
2013-11-25,27.7,20.1,12.1,14.4,1.5,-7.9,66,45,25,30.36,30.15,17,3,20,0.00
2013-11-26,33.3,29.5,24.2,30.2,22.4,12.6,97,75,54,30.31,30.05,14,2,14,0.02
2013-11-27,49.5,40.5,30.9,49.2,39.7,28.8,99,97,87,30.07,29.23,18,3,21,2.07
2013-11-28,32.6,24.7,15.2,28.9,13.7,4.9,87,64,41,30.41,29.40,27,5,27,0.00
2013-11-29,25.7,18.4,11.7,11.3,7.3,1.0,88,64,36,30.75,30.41,16,2,16,0.00
2013-11-30,26.9,19.1,7.0,19.4,11.0,4.2,90,72,51,30.81,30.43,12,2,12,0.00
2013-12-1,33.3,29.8,26.3,31.4,26.9,19.1,97,89,73,30.43,30.03,7,1,7,0.05
2013-12-2,36.3,33.5,31.7,35.3,32.7,31.0,98,97,93,30.03,29.91,5,1,6,0.01
2013-12-3,45.2,34.7,29.5,36.2,31.1,27.7,99,88,58,29.94,29.85,9,2,11,0.00
2013-12-4,38.1,30.7,26.6,28.2,25.1,22.2,94,80,60,30.19,29.93,16,2,16,0.00
2013-12-5,33.7,31.7,25.9,33.2,30.2,23.7,98,94,86,30.21,29.89,4,1,4,0.02
2013-12-6,43.7,38.4,30.7,43.3,36.0,29.2,99,92,69,30.14,29.85,12,2,13,0.05
2013-12-7,32.4,27.9,19.5,29.3,23.6,16.6,96,84,63,30.43,30.06,16,2,17,0.03
2013-12-8,26.3,22.6,17.5,19.0,16.2,13.4,93,77,60,30.57,30.43,8,1,8,0.00
2013-12-9,29.7,25.4,21.2,28.7,23.3,14.3,98,92,68,30.50,29.87,6,1,7,0.00
2013-12-10,31.0,25.5,15.7,29.2,23.7,12.3,98,93,83,29.95,29.78,11,2,12,0.00
2013-12-11,28.1,20.3,12.9,17.6,13.8,10.8,94,77,57,30.16,29.95,18,2,20,0.01
2013-12-12,19.3,13.9,7.3,16.8,5.1,-2.6,92,69,41,30.24,30.01,18,2,21,0.00
2013-12-13,25.1,13.8,4.8,16.5,6.4,-4.1,89,72,55,30.42,29.94,17,3,18,0.00
2013-12-14,11.0,6.4,1.1,7.7,-1.6,-6.9,90,70,50,30.61,30.22,12,2,13,0.00
2013-12-15,25.6,17.2,9.8,23.8,15.1,7.2,93,91,87,30.23,29.46,19,4,19,0.00
2013-12-16,23.1,14.8,5.8,14.5,8.4,-1.0,93,76,54,30.20,29.70,21,3,24,0.00
2013-12-17,11.8,5.2,-5.1,9.2,0.6,-9.1,90,81,61,30.26,30.01,8,2,11,0.00
2013-12-18,28.2,20.7,11.8,20.1,16.2,9.4,93,83,68,30.04,29.90,14,2,14,0.00
2013-12-19,36.4,27.6,22.3,24.9,21.5,18.6,87,78,55,30.09,29.93,17,2,17,0.02
2013-12-20,39.6,34.5,27.6,34.4,29.2,24.5,90,81,67,30.10,29.89,14,1,14,0.42
2013-12-21,52.2,41.5,33.0,44.9,37.6,30.4,93,86,66,29.92,29.83,10,2,10,0.18
2013-12-22,45.7,34.0,29.7,42.9,33.3,29.2,99,97,89,30.03,29.79,10,2,10,0.11
2013-12-23,31.4,30.2,29.2,31.1,29.9,28.8,99,99,98,30.08,29.96,5,1,5,0.07
2013-12-25,15.8,11.7,5.6,7.0,2.2,-3.0,81,65,49,30.53,30.41,14,2,14,0.00
2013-12-26,23.8,17.2,10.8,21.4,13.5,5.6,95,85,70,30.49,30.09,6,1,8,0.00
2013-12-27,29.6,22.0,14.3,21.4,17.5,12.4,96,83,64,30.24,30.17,13,2,15,0.02
2013-12-28,40.4,30.1,16.0,30.6,24.9,13.9,94,81,63,30.19,29.96,14,2,15,0.05
2013-12-29,35.5,31.1,26.5,31.0,28.7,24.9,98,91,77,30.01,29.49,9,1,10,0.63
2013-12-30,34.1,25.6,7.5,32.2,20.5,1.4,98,82,59,30.17,29.52,19,3,20,0.11
2013-12-31,17.4,8.1,1.5,6.3,-0.4,-4.0,83,68,54,30.16,30.01,10,2,10,0.01
2014-1-1,20.8,13.2,5.9,9.1,6.9,2.9,89,76,56,30.38,30.22,19,2,19,0.00
2014-1-2,11.5,5.7,-3.0,7.1,2.4,-6.5,89,86,79,30.37,29.92,18,4,18,0.00